Theta_e
319 319 319 319 318 318 318 317 318 319 318 318 319 320 320 320 320 321 321 321 321 321 322 321 320 321 322 323 324 327 330 334 349 352 352 352 352 351 351 351 350 351 351 350
319 319 319 319 318 318 317 317 318 318 319 319 320 320 320 320 321 321 321 321 322 322 322 322 321 321 321 322 324 326 327 331 336 341 349 349 349 347 348 348 349 350 350 350
320 320 319 318 318 318 318 318 319 319 319 320 320 321 321 320 321 321 321 321 321 321 322 322 322 321 321 322 322 323 326 329 333 334 339 349 349 348 345 344 347 350 350 349
320 320 319 318 317 317 319 318 318 317 319 319 320 321 322 322 322 322 321 322 322 321 321 321 322 322 322 322 321 321 323 327 329 333 334 335 343 344 341 341 341 346 351 351
319 318 317 317 318 318 317 318 318 318 320 320 320 321 322 323 323 323 323 322 322 322 323 323 323 323 322 322 322 322 323 325 329 332 334 334 336 335 337 340 340 343 347 351
318 318 318 318 319 318 318 318 319 320 321 324 323 324 324 324 324 324 324 324 323 323 323 322 322 322 322 322 322 323 325 327 330 331 332 335 339 340 339 337 339 341 345 348
317 318 318 318 318 319 319 320 323 324 324 325 324 325 326 325 324 324 324 323 324 323 322 321 321 321 320 322 322 323 324 326 328 329 330 331 333 337 342 342 338 335 340 345
322 322 319 319 319 319 320 321 321 325 327 326 325 327 328 326 324 323 322 322 323 322 321 321 320 320 320 320 321 321 322 322 324 327 329 331 331 332 331 334 336 339 335 338
322 323 321 320 319 319 321 322 321 327 327 328 325 325 325 325 325 323 322 322 322 322 321 321 320 319 319 319 320 320 320 322 321 323 327 330 332 333 332 332 334 337 340 340
321 325 322 322 322 322 321 321 324 326 336 332 326 327 327 327 326 324 323 322 322 321 320 320 320 319 319 319 319 319 320 320 320 321 323 325 328 331 333 335 336 337 341 342
320 322 323 321 322 322 322 323 323 323 326 332 331 327 324 325 325 325 323 321 320 319 320 319 319 318 317 317 318 318 319 318 319 320 321 322 325 328 330 334 335 338 341 340
319 324 326 323 321 320 322 323 322 331 330 328 330 333 324 324 324 323 322 320 319 319 318 318 317 316 316 316 317 318 318 318 318 318 318 320 323 326 326 329 332 334 337 337
320 323 327 322 322 321 321 322 322 323 327 330 332 328 322 322 322 321 320 319 317 317 318 317 317 316 315 316 316 316 315 316 317 318 318 317 319 323 327 328 326 328 329 330
317 319 320 325 322 323 324 322 321 322 329 326 324 322 321 320 323 321 319 317 317 318 317 317 317 316 315 314 314 315 314 313 313 314 316 316 317 318 320 323 324 324 325 327
317 320 318 317 317 317 318 318 317 318 319 323 323 321 318 319 319 317 317 317 317 317 317 316 315 315 314 313 313 312 312 312 312 312 313 314 315 317 317 319 318 319 317 324
318 319 319 319 317 316 317 316 316 316 316 316 318 318 317 317 316 318 318 317 317 316 315 315 315 314 314 313 312 311 311 311 311 311 312 312 312 313 315 316 320 316 318 318
317 319 321 322 316 317 317 315 317 315 315 316 316 315 315 316 317 317 317 316 315 315 315 315 315 314 313 312 311 311 311 311 311 311 311 311 311 311 312 315 315 319 317 316
315 316 320 319 316 322 317 317 316 316 316 316 316 316 317 317 316 315 314 314 314 314 314 313 313 312 311 310 309 309 309 309 308 308 308 310 310 310 311 312 314 315 319 320
315 316 319 321 319 319 317 316 317 318 317 317 317 317 316 315 314 314 314 313 313 313 312 311 309 308 308 308 307 307 308 307 308 307 307 307 308 308 311 311 313 314 315 319
316 316 319 318 321 319 323 317 316 316 318 318 316 316 315 314 315 314 312 311 310 309 308 308 307 306 307 307 307 307 307 306 306 306 306 307 307 308 309 311 312 312 313 315
320 319 317 320 321 318 318 317 315 319 321 316 314 314 314 313 312 311 310 309 308 308 308 306 306 306 306 306 306 307 306 306 304 305 306 306 306 307 307 308 311 312 312 312
319 319 320 318 322 321 317 316 318 317 315 314 314 313 312 311 310 310 309 308 308 307 307 306 306 307 305 306 305 306 305 304 304 304 305 306 306 306 306 306 306 309 311 313
317 317 321 318 320 317 316 317 313 313 313 313 313 311 310 310 309 309 308 307 306 307 306 304 304 303 302 303 304 304 304 302 302 304 304 304 304 305 305 305 306 306 309 310
313 314 316 314 315 314 315 312 312 311 311 312 311 310 310 309 308 307 306 306 306 305 304 301 302 300 302 300 301 301 300 300 301 302 303 303 303 303 304 305 305 306 306 308
311 310 311 311 311 314 313 312 311 311 311 310 309 309 308 307 306 306 306 306 305 302 301 299 298 298 298 298 297 298 299 298 299 300 301 301 300 300 302 303 304 305 305 307
311 312 314 316 314 313 312 311 311 311 309 309 308 308 307 306 306 305 305 305 303 301 298 296 296 296 296 295 295 296 296 296 297 298 299 299 300 300 301 302 303 303 304 306
Wind_Speed
15 13 15 17 17 18 17 13 16 12 7 8 12 16 17 15 15 14 15 16 15 15 14 15 17 11 12 10 7 8 12 18 17 21 22 23 25 25 25 27 27 27 27 29
16 16 17 16 13 11 13 16 18 17 14 13 16 20 17 17 15 17 17 17 16 17 15 14 16 15 15 13 13 12 12 12 17 22 23 24 23 26 26 25 26 27 28 30
18 12 5 10 15 14 17 17 17 17 14 10 16 19 19 18 23 21 18 18 16 16 16 14 11 11 9 9 14 15 14 14 13 18 21 22 23 22 23 26 25 27 30 30
16 16 16 13 13 12 17 17 17 15 15 15 16 16 16 12 14 13 14 15 16 18 17 12 4 7 11 14 16 15 13 13 15 16 19 24 24 25 29 29 27 28 30 31
16 15 12 17 20 17 18 15 12 15 16 18 19 13 15 17 16 16 13 11 12 6 5 4 5 8 12 15 16 17 15 14 14 14 16 20 22 26 27 28 26 25 25 31
16 12 6 12 9 5 13 10 14 16 16 18 20 19 17 16 17 11 9 14 6 5 3 3 7 10 13 12 14 14 12 13 14 15 17 18 22 22 23 24 26 28 31 33
17 20 19 16 15 14 13 13 12 15 15 18 20 20 15 7 9 10 13 9 10 4 3 4 7 9 9 11 7 10 11 12 13 15 16 17 19 20 23 24 27 28 28 35
14 14 11 11 16 16 19 18 13 22 18 18 20 18 14 16 4 4 5 2 2 4 2 4 8 7 12 10 13 13 14 13 13 14 15 17 18 21 23 26 28 29 32 41
10 17 8 12 13 12 16 16 15 15 19 18 18 26 22 24 18 13 13 12 5 4 6 9 10 10 11 13 13 14 15 16 17 16 15 15 17 20 24 26 27 28 35 39
2 11 13 15 17 18 16 12 8 8 6 16 15 16 7 12 11 5 7 7 5 5 10 11 10 13 11 12 14 12 11 17 19 15 16 17 15 18 20 23 25 28 28 32
8 12 16 16 19 20 15 12 17 16 14 10 15 12 7 6 4 6 5 4 5 9 11 12 13 17 19 18 15 13 12 12 17 15 15 16 17 16 19 20 23 24 23 26
5 4 13 21 20 19 15 19 15 5 10 13 11 8 11 6 11 6 8 8 11 13 14 14 14 18 17 17 14 14 13 14 14 14 17 15 17 18 13 13 16 19 22 22
3 4 8 13 15 14 14 13 14 13 13 19 14 12 4 6 11 8 11 17 14 11 12 10 12 11 14 19 14 14 17 19 20 16 16 18 15 15 17 12 14 13 14 20
3 13 14 14 19 5 8 16 17 13 9 15 19 24 22 10 12 13 19 15 13 12 12 13 13 13 15 17 20 19 20 21 22 21 19 20 17 17 15 16 11 11 14 14
4 9 16 20 21 21 23 21 20 20 21 20 21 23 21 18 21 17 10 13 14 14 14 14 16 16 18 20 21 23 25 24 23 24 24 22 21 21 20 15 21 22 32 27
9 7 15 20 18 20 22 22 22 23 22 19 23 25 22 22 7 12 11 14 17 16 16 18 20 15 18 21 23 27 27 27 27 27 25 26 25 25 23 22 12 18 32 36
5 3 7 13 12 13 14 17 18 17 14 16 16 14 7 9 10 12 13 15 18 19 21 21 18 18 23 26 26 27 29 28 28 30 29 28 29 28 26 24 22 20 26 38
8 14 4 9 11 11 9 3 5 6 11 11 12 12 12 11 14 18 20 22 22 20 21 22 21 26 30 26 26 28 29 27 27 29 34 36 31 32 29 27 25 22 22 31
19 11 3 5 9 15 21 6 2 5 10 11 11 11 15 19 21 21 18 18 22 24 23 24 32 33 34 32 30 33 30 28 30 33 34 37 39 38 34 28 26 23 24 24
7 9 5 9 7 8 6 1 6 7 9 10 12 13 17 19 16 16 25 25 25 25 31 29 32 33 31 29 33 28 27 26 30 34 34 33 33 33 34 29 25 25 25 27
4 4 8 11 8 7 5 2 4 7 5 12 12 16 19 18 16 23 23 24 23 24 26 29 30 29 30 27 30 27 26 27 33 34 32 29 31 30 30 29 29 29 27 28
7 4 5 7 5 8 11 5 5 9 13 15 17 19 20 22 23 23 25 25 25 24 28 34 29 31 32 29 30 31 27 33 38 31 28 29 29 28 28 30 27 26 28 28
4 3 2 4 4 4 4 10 7 7 11 16 19 21 21 24 24 25 23 24 23 21 24 30 31 30 38 35 28 25 32 34 30 28 27 27 27 30 28 28 29 28 25 24
5 5 4 7 5 6 14 4 6 11 14 18 19 21 21 24 25 25 24 22 20 19 23 32 30 30 22 28 30 29 31 30 28 28 26 26 26 27 27 27 27 26 26 24
9 8 13 16 14 11 4 8 12 15 17 19 20 20 22 22 24 25 24 23 17 21 28 28 26 26 30 32 31 30 27 25 27 27 26 28 27 27 28 30 29 29 33 30
5 8 6 7 5 7 10 14 16 16 19 18 20 22 22 22 24 25 23 20 19 17 29 27 29 29 29 31 31 31 28 27 28 28 26 25 25 26 27 26 27 35 39 32
Wind_Direction
203 228 228 232 223 260 292 284 282 276 230 252 267 270 268 257 248 248 246 237 242 244 248 244 245 235 260 274 277 257 240 239 232 226 226 223 229 225 226 228 227 218 222 226
235 230 252 251 257 264 260 258 258 261 265 263 267 264 265 261 254 248 255 254 242 244 243 243 239 238 244 245 270 275 267 248 238 232 237 241 231 234 229 228 226 225 224 221
232 249 183 274 252 244 249 255 265 271 276 233 257 266 257 252 250 252 247 258 257 257 259 260 263 255 264 268 273 272 272 269 250 245 246 236 243 254 241 230 229 224 222 222
246 242 257 229 245 251 256 246 251 261 261 260 252 271 273 266 265 255 235 228 249 252 245 243 271 322 292 281 278 272 276 274 264 251 250 253 246 232 235 240 237 223 218 223
248 229 241 251 256 252 255 279 279 270 263 270 259 259 261 248 241 236 230 265 254 247 43 351 317 311 298 289 280 268 269 272 273 271 266 260 247 255 248 247 250 241 227 215
257 270 259 280 298 269 286 255 253 251 254 254 254 255 262 261 261 257 228 217 159 104 23 305 307 297 290 309 308 302 295 281 282 278 271 263 267 272 266 251 248 244 229 220
256 248 247 240 255 260 232 253 267 259 247 256 251 246 258 288 299 279 290 275 116 118 311 346 315 307 320 301 321 320 315 303 292 285 277 271 267 267 265 265 262 261 254 231
284 259 253 294 245 263 255 245 251 280 280 288 303 280 270 274 222 277 255 278 24 197 333 285 281 294 297 316 309 313 308 310 302 292 286 280 274 266 260 255 254 261 254 258
301 271 284 281 280 287 281 278 291 319 286 273 272 274 268 262 243 190 207 232 265 322 303 288 295 302 307 308 307 310 310 306 302 299 290 285 281 268 265 266 265 257 253 264
273 277 272 285 301 274 262 268 275 252 270 265 267 274 279 344 320 22 161 223 219 290 294 300 303 295 304 303 298 298 317 312 305 301 298 288 287 285 277 269 261 257 263 257
260 255 268 267 253 257 266 253 262 260 266 266 279 272 352 314 359 306 260 262 275 275 287 296 299 304 306 297 296 304 308 308 307 316 308 300 287 279 284 272 265 258 255 252
265 273 274 270 278 271 249 267 249 239 259 257 284 275 289 85 248 220 306 314 285 293 311 305 309 311 299 296 303 303 302 300 293 300 309 313 306 293 268 272 269 263 250 244
352 247 289 276 236 236 252 245 257 263 273 262 265 259 108 332 300 255 293 285 292 299 283 291 292 295 300 301 300 302 301 300 302 298 302 301 305 305 299 295 263 266 260 230
335 271 263 270 293 252 275 280 276 261 267 273 260 278 281 308 278 270 264 300 288 290 288 285 287 291 298 300 303 295 297 297 296 297 294 291 288 294 290 294 299 321 271 259
257 262 266 271 273 280 281 278 274 266 261 259 272 282 289 280 286 292 298 286 284 293 291 304 299 299 298 294 297 297 294 295 294 290 289 287 284 279 282 269 265 252 282 298
175 261 267 274 265 257 262 264 258 254 256 251 254 256 254 259 343 319 323 314 301 287 298 294 288 290 293 292 294 294 294 290 287 285 282 286 281 278 274 276 255 243 236 279
237 257 272 263 284 290 266 260 273 250 261 268 275 296 339 289 325 316 292 285 308 302 294 292 303 303 298 293 291 291 289 293 292 289 278 274 278 272 268 260 262 223 221 245
232 262 274 284 299 259 300 160 312 295 288 300 308 330 336 328 331 321 320 302 294 307 315 312 309 305 297 295 302 296 293 296 293 289 284 282 276 273 265 261 251 253 240 219
212 229 250 255 259 285 275 309 212 348 303 335 340 352 344 335 312 294 293 332 325 318 313 306 301 302 305 303 296 293 292 292 286 276 273 273 269 270 264 255 256 247 249 251
174 209 229 260 258 271 113 262 2 318 269 34 1 325 313 317 305 299 334 321 314 309 297 296 300 300 289 285 285 285 282 283 278 275 275 269 271 273 270 267 262 252 250 250
186 179 224 242 252 279 49 54 305 260 358 308 306 314 313 310 305 309 313 301 294 307 310 307 300 290 296 288 287 279 278 274 279 278 269 270 267 266 269 277 264 252 248 249
199 227 213 238 246 244 356 331 335 345 332 327 316 313 314 308 307 311 306 305 306 308 310 308 302 295 293 289 298 287 278 281 283 274 267 269 262 261 263 259 263 274 245 243
279 233 336 255 303 289 288 261 322 356 318 309 313 318 314 308 308 303 305 314 307 309 315 314 308 299 298 294 278 277 277 284 280 268 266 261 262 259 253 254 253 251 252 247
291 185 236 290 236 328 287 356 9 327 305 318 315 314 314 312 313 311 307 305 308 317 310 306 303 298 285 288 285 279 282 281 276 271 265 264 265 265 258 248 242 240 241 243
286 286 282 273 270 339 347 348 333 316 314 323 317 319 316 316 307 305 309 311 321 309 304 304 301 295 296 298 295 291 283 283 282 276 265 254 251 253 252 248 243 236 237 235
334 284 281 290 327 310 310 319 311 323 325 321 321 318 315 309 310 309 317 316 309 306 308 304 299 294 292 294 290 287 283 274 265 264 263 257 251 248 248 245 245 242 242 237